Location: FWAS Thompsen Ranch
(33.4402°N, 97.5607°W)
Time: 04:06:55
(UTC-06:00)

Envisat - Visible Passes

Search period start: 18 January 2018 00:00
Search period end: 28 January 2018 00:00
Orbit: 764 x 766 km, 98.2° (Epoch: 17 January)

Date Brightness Start Highest point End Pass type
(mag) Time Alt. Az. Time Alt. Az. Time Alt. Az.
22 Jan 5.2 19:54:07 13° N 19:54:07 13° N 19:54:38 10° N visible
23 Jan 5.0 19:16:42 12° NNE 19:16:42 12° NNE 19:17:04 10° NNE visible
24 Jan 5.2 20:19:28 15° NNW 20:19:28 15° NNW 20:20:21 10° NNW visible
25 Jan 4.8 19:42:01 17° NNE 19:42:01 17° NNE 19:43:21 10° N visible
26 Jan 4.8 19:04:34 13° NE 19:04:34 13° NE 19:05:27 10° NNE visible
26 Jan 5.3 20:44:46 16° NNW 20:44:46 16° NNW 20:45:45 10° NNW visible
27 Jan 4.6 20:07:18 23° N 20:07:18 23° N 20:09:13 10° N visible
